Starlink 31384

operational
NORAD ID: 58983 Int'l Des: 2024-031 Owner: SPXS Country: US Constellation: starlink
LEOCIRCULAR

关于 Starlink 31384

正在加载描述...

实时位置

正在加载3D地球...

即将过境

高度历史

Altitude vs Time

uPlot chart will show altitude changes over time

两行轨道根数

1 58983U 24031U 25350.63423582 .00000360 00000-0 24279-4 0 9998
2 58983 53.1619 322.7136 0001039 100.1583 259.9535 15.30193990103793
Epoch: Dec 16, 2025 • Age: 21 hours

当前状态

高度 475.4 km
速度 7.63 km/s
星下点 4.82°N, 136.71°W
发射日期 Feb 15, 2024
运行时间 1.8 years
类型 internet

技术详情

分类 Payload
质量 730.00 kg
干质量 700.00 kg
总质量 730.00 kg
长度 0.30 m
直径 4.10 m
跨度 29.00 m
形状 Box + pan
制造商 SPXS
平台类型 Starlink V2M
阶段状态 In Orbit
所有者/国家 SPXS/US

大型星座

Loading constellations...